Content
SEND FEEDBACK

Daily
Averages
Monthly
Summary
United States of America

EL PASO, TEXAS


Home > North America > United States > Texas
Elevation: 3918 feet     Latitude: 31 48N     Longitude: 106 24W

WEATHER
 
SELECT A DAY
Number of Records: 172,213;   Date Range: 1/1/95 - 9/18/14
 
SHARE

PRINT THIS DATA

[ ← Previous Day ]
WEATHER ALMANAC - MAY 4, 2013
[ Next Day → ]
[ °C ]   °F
Weather ElementAverageHighLow
Temperature67 °F82.9 °F (3:51 pm)45 °F (6:51 am)
Dewpoint11.1 °F19 °F (12:51 pm)3 °F (7:51 am)
Humidity11.8 %18 % (5:51 am)8 % (3:51 pm)
Barometer29.80 in29.88 in (1:51 am)29.70 in (3:51 pm)
Wind Speed5 mph19.6 mph (8:51 pm)
Wind Gust25.3 mph (9:51 pm)
Weather ElementAverage
Visibility10 mi
Wind DirectionENE (70.4 °)

Weather ElementTotal
Precipitation---
Heating Degree Days1.1 (Base 65)
Growing Degree Days14 (Base 50)
Averaged from 23 records on May 4, 2013
WEATHER CONDITIONS BREAKOUT
WIND DIRECTION BREAKOUT
WEATHER BY HOUR - MAY 4, 2013
[ °C ]   °F
Local TimeTemperatureDewpointHumidityBarometerVisibilityWind DirectionWind SpeedGust SpeedPrecipitationEventsConditions
1:51 AM55.0 °F6.1 °F14 %29.88 in10.0 miCalmClear
2:51 AM54.0 °F6.1 °F15 %29.86 in10.0 miCalmClear
3:51 AM52.0 °F6.1 °F16 %29.85 in10.0 miCalmPartly Cloudy
4:51 AM53.1 °F5.0 °F14 %29.84 in10.0 miCalmScattered Clouds
5:51 AM46.9 °F5.0 °F18 %29.85 in10.0 miNorth (10°)3.5 mphScattered Clouds
6:51 AM45.0 °F3.9 °F18 %29.87 in10.0 miNNE (20°)3.5 mphScattered Clouds
7:51 AM50.0 °F3.0 °F15 %29.88 in10.0 miNorth (10°)6.9 mphMostly Cloudy
8:51 AM57.0 °F6.1 °F13 %29.87 in10.0 miNorth (360°)5.8 mphMostly Cloudy
9:51 AM63.0 °F8.1 °F11 %29.86 in10.0 miVariable3.5 mphMostly Cloudy
10:51 AM66.9 °F10.0 °F11 %29.85 in10.0 miVariable3.5 mphMostly Cloudy
11:51 AM71.1 °F17.1 °F13 %29.83 in10.0 miEast (100°)4.6 mphMostly Cloudy
12:51 PM77.0 °F19.0 °F11 %29.79 in10.0 miVariable4.6 mphMostly Cloudy
1:51 PM78.1 °F18.0 °F10 %29.76 in10.0 miVariable4.6 mphMostly Cloudy
2:51 PM81.0 °F17.1 °F9 %29.74 in10.0 miVariable3.5 mphMostly Cloudy
3:51 PM82.9 °F16.0 °F8 %29.70 in10.0 miWest (260°)6.9 mphMostly Cloudy
4:51 PM81.0 °F15.1 °F8 %29.70 in10.0 miCalmMostly Cloudy
5:51 PM82.9 °F16.0 °F8 %29.70 in10.0 miNorth (360°)5.8 mphMostly Cloudy
6:51 PM80.1 °F15.1 °F9 %29.71 in10.0 miEast (90°)4.6 mphMostly Cloudy
7:51 PM79.0 °F14.0 °F9 %29.71 in10.0 miEast (100°)6.9 mphMostly Cloudy
8:51 PM75.0 °F12.0 °F9 %29.74 in10.0 miEast (100°)19.6 mph24.2 mphMostly Cloudy
9:51 PM72.0 °F12.0 °F10 %29.76 in10.0 miEast (100°)18.4 mph25.3 mphScattered Clouds
10:51 PM70.0 °F12.0 °F11 %29.80 in10.0 miESE (110°)8.1 mph16.1 mphMostly Cloudy
11:51 PM69.1 °F12.9 °F11 %29.81 in10.0 miCalmMostly Cloudy
Hourly data recorded from KELP, located miles away from El Paso, Texas







STORIES FROM OUR PARTNERS